Location: Puketoi
(40.5833°S, 176.0167°E)
Time: 15:14:37
(UTC+00:00)

Cosmos 1110 Rocket - Pass Details

Date: 08 February 2023
Orbit: 753 x 779 km, 74.0° (Epoch: 23 March)

Event Time Altitude Azimuth Distance (km) Brightness Sun altitude
Rises 14:22:20 0° 199° (SSW) 3,274 7.8 -28.7°
Reaches altitude 10° 14:24:44 10° 197° (SSW) 2,345 7.0 -28.4°
Enters shadow 14:30:00 80° 122° (ESE) 800 4.0 -27.9°
